Location: Unnamed
(45.3580°N, 90.2245°W)
Time: 23:04:31
(UTC-06:00)

ARIANE 6 FM1 Upper Stage - Visible Passes

Search period start: 14 January 2026 00:00
Search period end: 24 January 2026 00:00
Orbit: 522 x 610 km, 62.0° (Epoch: 14 January)

Date Brightness Start Highest point End Pass type
(mag) Time Alt. Az. Time Alt. Az. Time Alt. Az.
14 Jan 2.5 05:37:37 58° WSW 05:37:39 58° SW 05:41:35 10° SSE visible
15 Jan 3.3 05:38:24 36° SW 05:38:24 36° SW 05:41:32 10° SSE visible
16 Jan 4.2 05:39:18 21° SSW 05:39:18 21° SSW 05:41:16 10° S visible
17 Jan 4.9 05:40:15 12° SSW 05:40:15 12° SSW 05:40:45 10° SSW visible
19 Jan 5.2 19:35:27 10° SSW 19:36:05 14° SSW 19:36:05 14° SSW visible
20 Jan 4.8 18:00:22 10° SE 18:01:04 11° ESE 18:01:04 11° ESE visible
20 Jan 4.6 19:35:34 10° SW 19:37:09 23° SW 19:37:09 23° SW visible
21 Jan 4.3 17:58:44 10° SSE 18:01:15 16° ESE 18:02:03 15° ESE visible
21 Jan 4.3 19:35:49 10° SW 19:38:06 31° WSW 19:38:06 31° WSW visible
22 Jan 3.9 17:58:03 10° S 18:01:17 23° ESE 18:02:55 18° E visible
22 Jan 4.1 19:36:12 10° WSW 19:38:59 34° W 19:38:59 34° W visible
23 Jan 3.4 17:57:40 10° S 18:01:21 33° ESE 18:03:42 18° ENE visible
23 Jan 4.3 19:36:41 10° WSW 19:39:45 30° WNW 19:39:45 30° WNW visible
